User: anonymous   Login
Location: Artiguedieu
(43.5000°N, 0.5454°E)
Time: 07:51:40
(UTC+00:00)
Language:

Cosmos 2082 Rocket - Orbit

View from above orbital plane
View from above orbital plane
View from above satellite
View from above satellite

Ground track
Ground track

The orbit data is extracted from the following two-line orbital elements,

1 20625U 90046B   21058.76648299  .00000181  00000-0  11850-3 0  9999
2 20625  70.9984 192.3008 0015716 220.1185 139.8778 14.14661953588729
Epoch (UTC): 27 February 2021 18:23:44
Eccentricity: 0.0015716
inclination: 70.9984°
perigee height: 832 km
apogee height: 855 km
right ascension of ascending node: 192.3008°
argument of perigee: 220.1185°
revolutions per day: 14.14661953
mean anomaly at epoch: 139.8778°
orbit number at epoch: 58872

The dashed part of the orbit path shows where the satellite is in the earth's shadow,  

DLR